Location: Baumgartsau
(48.4586°N, 14.0864°E)
Time: 17:24:32
(UTC+00:00)

BREEZE M DEB (TANK) - Pass Details

Date: 18 May 2021
Orbit: 296 x 11843 km, 49.5° (Epoch: 14 June)

Event Time Altitude Azimuth Distance (km) Brightness Sun altitude
Rises 00:32:45 0° 296° (WNW) 8,945 8.5 -18.9°
Reaches altitude 10° 00:44:46 10° 276° (W) 10,198 8.5 -18.1°
Maximum altitude 00:59:56 13° 258° (WSW) 12,167 8.7 -16.9°
Drops below altitude 10° 01:21:41 10° 241° (WSW) 14,700 9.0 -15.0°
Enters shadow 01:33:45 - 234° (SW) 15,784 9.1 -13.8°
